Year,Month,Day,Hour,Minute,Value (Times are PST for temperature in C)
2016,02,20,00,00,6.30
2016,02,20,00,01,6.30
2016,02,20,00,02,6.30
2016,02,20,00,03,6.30
2016,02,20,00,04,6.30
2016,02,20,00,05,6.30
2016,02,20,00,06,6.30
2016,02,20,00,07,6.30
2016,02,20,00,08,6.40
2016,02,20,00,09,6.40
2016,02,20,00,10,6.40
2016,02,20,00,11,6.50
2016,02,20,00,12,6.50
2016,02,20,00,13,6.60
2016,02,20,00,14,6.60
2016,02,20,00,15,6.60
2016,02,20,00,16,6.70
2016,02,20,00,17,6.70
2016,02,20,00,18,6.70
2016,02,20,00,19,6.70
2016,02,20,00,20,6.80
2016,02,20,00,21,6.80
2016,02,20,00,22,6.80
2016,02,20,00,23,6.90
2016,02,20,00,24,6.90
2016,02,20,00,25,7.00
2016,02,20,00,26,7.10
2016,02,20,00,27,7.10
2016,02,20,00,28,7.20
2016,02,20,00,29,7.20
2016,02,20,00,30,7.20
2016,02,20,00,31,7.20
2016,02,20,00,32,7.30
2016,02,20,00,33,7.30
2016,02,20,00,34,7.30
2016,02,20,00,35,7.30
2016,02,20,00,36,7.40
2016,02,20,00,37,7.40
2016,02,20,00,38,7.40
2016,02,20,00,39,7.30
2016,02,20,00,40,7.30
2016,02,20,00,41,7.20
2016,02,20,00,42,7.20
2016,02,20,00,43,7.20
2016,02,20,00,44,7.20
2016,02,20,00,45,7.20
2016,02,20,00,46,7.10
2016,02,20,00,47,7.10
2016,02,20,00,48,7.20
2016,02,20,00,49,7.20
2016,02,20,00,50,7.20
2016,02,20,00,51,7.20
2016,02,20,00,52,7.20
2016,02,20,00,53,7.20
2016,02,20,00,54,7.20
2016,02,20,00,55,7.20
2016,02,20,00,56,7.20
2016,02,20,00,57,7.20
2016,02,20,00,58,7.30
2016,02,20,00,59,7.30
2016,02,20,01,00,7.30
2016,02,20,01,01,7.20
2016,02,20,01,02,7.30
2016,02,20,01,03,7.30
2016,02,20,01,04,7.30
2016,02,20,01,05,7.30
2016,02,20,01,06,7.30
2016,02,20,01,07,7.30
2016,02,20,01,08,7.40
2016,02,20,01,09,7.40
2016,02,20,01,10,7.50
2016,02,20,01,11,7.50
2016,02,20,01,12,7.50
2016,02,20,01,13,7.50
2016,02,20,01,14,7.50
2016,02,20,01,15,7.50
2016,02,20,01,16,7.50
2016,02,20,01,17,7.50
2016,02,20,01,18,7.50
2016,02,20,01,19,7.60
2016,02,20,01,20,7.60
2016,02,20,01,21,7.60
2016,02,20,01,22,7.60
2016,02,20,01,23,7.60
2016,02,20,01,24,7.60
2016,02,20,01,25,7.60
2016,02,20,01,26,7.60
2016,02,20,01,27,7.60
2016,02,20,01,28,7.60
2016,02,20,01,29,7.60
2016,02,20,01,30,7.60
2016,02,20,01,31,7.60
2016,02,20,01,32,7.60
2016,02,20,01,33,7.60
2016,02,20,01,34,7.60
2016,02,20,01,35,7.60
2016,02,20,01,36,7.60
2016,02,20,01,37,7.60
2016,02,20,01,38,7.60
2016,02,20,01,39,7.60
2016,02,20,01,40,7.60
2016,02,20,01,41,7.70
2016,02,20,01,42,7.70
2016,02,20,01,43,7.70
2016,02,20,01,44,7.70
2016,02,20,01,45,7.70
2016,02,20,01,46,7.70
2016,02,20,01,47,7.70
2016,02,20,01,48,7.70
2016,02,20,01,49,7.70
2016,02,20,01,50,7.60
2016,02,20,01,51,7.60
2016,02,20,01,52,7.50
2016,02,20,01,53,7.40
2016,02,20,01,54,7.30
2016,02,20,01,55,7.20
2016,02,20,01,56,7.10
2016,02,20,01,57,7.00
2016,02,20,01,58,6.80
2016,02,20,01,59,6.70
2016,02,20,02,00,6.60
2016,02,20,02,01,6.60
2016,02,20,02,02,6.50
2016,02,20,02,03,6.50
2016,02,20,02,04,6.40
2016,02,20,02,05,6.50
2016,02,20,02,06,6.50
2016,02,20,02,07,6.50
2016,02,20,02,08,6.60
2016,02,20,02,09,6.60
2016,02,20,02,10,6.60
2016,02,20,02,11,6.60
2016,02,20,02,12,6.60
2016,02,20,02,13,6.60
2016,02,20,02,14,6.60
2016,02,20,02,15,6.60
2016,02,20,02,16,6.60
2016,02,20,02,17,6.60
2016,02,20,02,18,6.60
2016,02,20,02,19,6.60
2016,02,20,02,20,6.60
2016,02,20,02,21,6.60
2016,02,20,02,22,6.60
2016,02,20,02,23,6.60
2016,02,20,02,24,6.50
2016,02,20,02,25,6.50
2016,02,20,02,26,6.50
2016,02,20,02,27,6.50
2016,02,20,02,28,6.50
2016,02,20,02,29,6.50
2016,02,20,02,30,6.50
2016,02,20,02,31,6.40
2016,02,20,02,32,6.40
2016,02,20,02,33,6.40
2016,02,20,02,34,6.40
2016,02,20,02,35,6.40
2016,02,20,02,36,6.40
2016,02,20,02,37,6.40
2016,02,20,02,38,6.30
2016,02,20,02,39,6.30
2016,02,20,02,40,6.30
2016,02,20,02,41,6.30
2016,02,20,02,42,6.20
2016,02,20,02,43,6.20
2016,02,20,02,44,6.20
2016,02,20,02,45,6.10
2016,02,20,02,46,6.10
2016,02,20,02,47,6.10
2016,02,20,02,48,6.10
2016,02,20,02,49,6.10
2016,02,20,02,50,6.00
2016,02,20,02,51,6.00
2016,02,20,02,52,6.00
2016,02,20,02,53,5.90
2016,02,20,02,54,5.90
2016,02,20,02,55,5.90
2016,02,20,02,56,5.90
2016,02,20,02,57,5.90
2016,02,20,02,58,5.80
2016,02,20,02,59,5.80
2016,02,20,03,00,5.80
2016,02,20,03,01,5.80
2016,02,20,03,02,5.80
2016,02,20,03,03,5.80
2016,02,20,03,04,5.80
2016,02,20,03,05,5.80
2016,02,20,03,06,5.70
2016,02,20,03,07,5.70
2016,02,20,03,08,5.70
2016,02,20,03,09,5.70
2016,02,20,03,10,5.70
2016,02,20,03,11,5.60
2016,02,20,03,12,5.60
2016,02,20,03,13,5.60
2016,02,20,03,14,5.60
2016,02,20,03,15,5.60
2016,02,20,03,16,5.60
2016,02,20,03,17,5.60
2016,02,20,03,18,5.60
2016,02,20,03,19,5.60
2016,02,20,03,20,5.60
2016,02,20,03,21,5.60
2016,02,20,03,22,5.60
2016,02,20,03,23,5.60
2016,02,20,03,24,5.60
2016,02,20,03,25,5.60
2016,02,20,03,26,5.60
2016,02,20,03,27,5.60
2016,02,20,03,28,5.60
2016,02,20,03,29,5.60
2016,02,20,03,30,5.60
2016,02,20,03,31,5.60
2016,02,20,03,32,5.60
2016,02,20,03,33,5.60
2016,02,20,03,34,5.50
2016,02,20,03,35,5.50
2016,02,20,03,36,5.50
2016,02,20,03,37,5.50
2016,02,20,03,38,5.50
2016,02,20,03,39,5.50
2016,02,20,03,40,5.50
2016,02,20,03,41,5.60
2016,02,20,03,42,5.60
2016,02,20,03,43,5.60
2016,02,20,03,44,5.60
2016,02,20,03,45,5.60
2016,02,20,03,46,5.60
2016,02,20,03,47,5.60
2016,02,20,03,48,5.60
2016,02,20,03,49,5.60
2016,02,20,03,50,5.60
2016,02,20,03,51,5.60
2016,02,20,03,52,5.60
2016,02,20,03,53,5.70
2016,02,20,03,54,5.60
2016,02,20,03,55,5.60
2016,02,20,03,56,5.60
2016,02,20,03,57,5.60
2016,02,20,03,58,5.60
2016,02,20,03,59,5.60
2016,02,20,04,00,5.60
2016,02,20,04,01,5.60
2016,02,20,04,02,5.60
2016,02,20,04,03,5.60
2016,02,20,04,04,5.60
2016,02,20,04,05,5.60
2016,02,20,04,06,5.60
2016,02,20,04,07,5.60
2016,02,20,04,08,5.50
2016,02,20,04,09,5.50
2016,02,20,04,10,5.50
2016,02,20,04,11,5.50
2016,02,20,04,12,5.50
2016,02,20,04,13,5.50
2016,02,20,04,14,5.50
2016,02,20,04,15,5.50
2016,02,20,04,16,5.50
2016,02,20,04,17,5.50
2016,02,20,04,18,5.50
2016,02,20,04,19,5.50
2016,02,20,04,20,5.50
2016,02,20,04,21,5.50
2016,02,20,04,22,5.40
2016,02,20,04,23,5.40
2016,02,20,04,24,5.40
2016,02,20,04,25,5.40
2016,02,20,04,26,5.40
2016,02,20,04,27,5.40
2016,02,20,04,28,5.40
2016,02,20,04,29,5.40
2016,02,20,04,30,5.40
2016,02,20,04,31,5.40
2016,02,20,04,32,5.40
2016,02,20,04,33,5.40
2016,02,20,04,34,5.40
2016,02,20,04,35,5.40
2016,02,20,04,36,5.40
2016,02,20,04,37,5.40
2016,02,20,04,38,5.40
2016,02,20,04,39,5.40
2016,02,20,04,40,5.40
2016,02,20,04,41,5.40
2016,02,20,04,42,5.40
2016,02,20,04,43,5.40
2016,02,20,04,44,5.40
2016,02,20,04,45,5.40
2016,02,20,04,46,5.40
2016,02,20,04,47,5.40
2016,02,20,04,48,5.40
2016,02,20,04,49,5.50
2016,02,20,04,50,5.50
2016,02,20,04,51,5.50
2016,02,20,04,52,5.50
2016,02,20,04,53,5.50
2016,02,20,04,54,5.50
2016,02,20,04,55,5.50
2016,02,20,04,56,5.50
2016,02,20,04,57,5.50
2016,02,20,04,58,5.50
2016,02,20,04,59,5.60
2016,02,20,05,00,5.50
2016,02,20,05,01,5.50
2016,02,20,05,02,5.50
2016,02,20,05,03,5.50
2016,02,20,05,04,5.50
2016,02,20,05,05,5.50
2016,02,20,05,06,5.50
2016,02,20,05,07,5.50
2016,02,20,05,08,5.40
2016,02,20,05,09,5.40
2016,02,20,05,10,5.40
2016,02,20,05,11,5.40
2016,02,20,05,12,5.40
2016,02,20,05,13,5.40
2016,02,20,05,14,5.40
2016,02,20,05,15,5.40
2016,02,20,05,16,5.40
2016,02,20,05,17,5.40
2016,02,20,05,18,5.40
2016,02,20,05,19,5.40
2016,02,20,05,20,5.30
2016,02,20,05,21,5.30
2016,02,20,05,22,5.30
2016,02,20,05,23,5.30
2016,02,20,05,24,5.30
2016,02,20,05,25,5.30
2016,02,20,05,26,5.30
2016,02,20,05,27,5.30
2016,02,20,05,28,5.20
2016,02,20,05,29,5.20
2016,02,20,05,30,5.20
2016,02,20,05,31,5.20
2016,02,20,05,32,5.20
2016,02,20,05,33,5.20
2016,02,20,05,34,5.20
2016,02,20,05,35,5.20
2016,02,20,05,36,5.10
2016,02,20,05,37,5.10
2016,02,20,05,38,5.10
2016,02,20,05,39,5.10
2016,02,20,05,40,5.10
2016,02,20,05,41,5.10
2016,02,20,05,42,5.10
2016,02,20,05,43,5.10
2016,02,20,05,44,5.10
2016,02,20,05,45,5.00
2016,02,20,05,46,5.00
2016,02,20,05,47,5.00
2016,02,20,05,48,5.00
2016,02,20,05,49,5.00
2016,02,20,05,50,5.00
2016,02,20,05,51,5.00
2016,02,20,05,52,5.00
2016,02,20,05,53,5.00
2016,02,20,05,54,5.00
2016,02,20,05,55,5.00
2016,02,20,05,56,5.00
2016,02,20,05,57,5.00
2016,02,20,05,58,5.00
2016,02,20,05,59,5.00
2016,02,20,06,00,5.00
2016,02,20,06,01,5.00
2016,02,20,06,02,5.00
2016,02,20,06,03,5.00
2016,02,20,06,04,5.00
2016,02,20,06,05,5.00
2016,02,20,06,06,5.00
2016,02,20,06,07,5.00
2016,02,20,06,08,4.90
2016,02,20,06,09,5.00
2016,02,20,06,10,5.00
2016,02,20,06,11,4.90
2016,02,20,06,12,4.90
2016,02,20,06,13,5.00
2016,02,20,06,14,5.00
2016,02,20,06,15,5.00
2016,02,20,06,16,5.00
2016,02,20,06,17,5.00
2016,02,20,06,18,5.00
2016,02,20,06,19,5.00
2016,02,20,06,20,5.00
2016,02,20,06,21,5.00
2016,02,20,06,22,5.00
2016,02,20,06,23,5.00
2016,02,20,06,24,5.00
2016,02,20,06,25,5.00
2016,02,20,06,26,5.00
2016,02,20,06,27,5.00
2016,02,20,06,28,5.00
2016,02,20,06,29,5.00
2016,02,20,06,30,4.90
2016,02,20,06,31,4.90
2016,02,20,06,32,4.80
2016,02,20,06,33,4.80
2016,02,20,06,34,4.80
2016,02,20,06,35,4.80
2016,02,20,06,36,4.80
2016,02,20,06,37,4.80
2016,02,20,06,38,4.80
2016,02,20,06,39,4.80
2016,02,20,06,40,4.70
2016,02,20,06,41,4.70
2016,02,20,06,42,4.70
2016,02,20,06,43,4.70
2016,02,20,06,44,4.70
2016,02,20,06,45,4.60
2016,02,20,06,46,4.60
2016,02,20,06,47,4.60
2016,02,20,06,48,4.50
2016,02,20,06,49,4.50
2016,02,20,06,50,4.50
2016,02,20,06,51,4.40
2016,02,20,06,52,4.40
2016,02,20,06,53,4.40
2016,02,20,06,54,4.30
2016,02,20,06,55,4.30
2016,02,20,06,56,4.30
2016,02,20,06,57,4.30
2016,02,20,06,58,4.30
2016,02,20,06,59,4.20
2016,02,20,07,00,4.20
2016,02,20,07,01,4.20
2016,02,20,07,02,4.20
2016,02,20,07,03,4.20
2016,02,20,07,04,4.20
2016,02,20,07,05,4.10
2016,02,20,07,06,4.10
2016,02,20,07,07,4.10
2016,02,20,07,08,4.10
2016,02,20,07,09,4.10
2016,02,20,07,10,4.10
2016,02,20,07,11,4.10
2016,02,20,07,12,4.10
2016,02,20,07,13,4.10
2016,02,20,07,14,4.10
2016,02,20,07,15,4.10
2016,02,20,07,16,4.10
2016,02,20,07,17,4.10
2016,02,20,07,18,4.10
2016,02,20,07,19,4.10
2016,02,20,07,20,4.10
2016,02,20,07,21,4.10
2016,02,20,07,22,4.10
2016,02,20,07,23,4.10
2016,02,20,07,24,4.10
2016,02,20,07,25,4.10
2016,02,20,07,26,4.10
2016,02,20,07,27,4.10
2016,02,20,07,28,4.00
2016,02,20,07,29,4.00
2016,02,20,07,30,4.00
2016,02,20,07,31,4.00
2016,02,20,07,32,4.00
2016,02,20,07,33,4.00
2016,02,20,07,34,4.00
2016,02,20,07,35,4.00
2016,02,20,07,36,4.00
2016,02,20,07,37,4.00
2016,02,20,07,38,4.00
2016,02,20,07,39,4.00
2016,02,20,07,40,4.00
2016,02,20,07,41,4.00
2016,02,20,07,42,4.00
2016,02,20,07,43,4.10
2016,02,20,07,44,4.10
2016,02,20,07,45,4.10
2016,02,20,07,46,4.10
2016,02,20,07,47,4.10
2016,02,20,07,48,4.10
2016,02,20,07,49,4.10
2016,02,20,07,50,4.10
2016,02,20,07,51,4.10
2016,02,20,07,52,4.10
2016,02,20,07,53,4.10
2016,02,20,07,54,4.10
2016,02,20,07,55,4.10
2016,02,20,07,56,4.10
2016,02,20,07,57,4.10
2016,02,20,07,58,4.20
2016,02,20,07,59,4.20
2016,02,20,08,00,4.20
2016,02,20,08,01,4.20
2016,02,20,08,02,4.20
2016,02,20,08,03,4.20
2016,02,20,08,04,4.20
2016,02,20,08,05,4.20
2016,02,20,08,06,4.20
2016,02,20,08,07,4.20
2016,02,20,08,08,4.20
2016,02,20,08,09,4.20
2016,02,20,08,10,4.20
2016,02,20,08,11,4.20
2016,02,20,08,12,4.20
2016,02,20,08,13,4.20
2016,02,20,08,14,4.30
2016,02,20,08,15,4.30
2016,02,20,08,16,4.30
2016,02,20,08,17,4.30
2016,02,20,08,18,4.30
2016,02,20,08,19,4.30
2016,02,20,08,20,4.40
2016,02,20,08,21,4.40
2016,02,20,08,22,4.40
2016,02,20,08,23,4.40
2016,02,20,08,24,4.40
2016,02,20,08,25,4.40
2016,02,20,08,26,4.50
2016,02,20,08,27,4.50
2016,02,20,08,28,4.50
2016,02,20,08,29,4.50
2016,02,20,08,30,4.60
2016,02,20,08,31,4.60
2016,02,20,08,32,4.60
2016,02,20,08,33,4.60
2016,02,20,08,34,4.70
2016,02,20,08,35,4.70
2016,02,20,08,36,4.70
2016,02,20,08,37,4.80
2016,02,20,08,38,4.80
2016,02,20,08,39,4.80
2016,02,20,08,40,4.80
2016,02,20,08,41,4.80
2016,02,20,08,42,4.80
2016,02,20,08,43,4.80
2016,02,20,08,44,4.80
2016,02,20,08,45,4.80
2016,02,20,08,46,4.90
2016,02,20,08,47,4.90
2016,02,20,08,48,4.90
2016,02,20,08,49,4.90
2016,02,20,08,50,5.00
2016,02,20,08,51,5.00
2016,02,20,08,52,5.00
2016,02,20,08,53,5.10
2016,02,20,08,54,5.10
2016,02,20,08,55,5.10
2016,02,20,08,56,5.20
2016,02,20,08,57,5.20
2016,02,20,08,58,5.20
2016,02,20,08,59,5.30
2016,02,20,09,00,5.30
2016,02,20,09,01,5.30
2016,02,20,09,02,5.30
2016,02,20,09,03,5.40
2016,02,20,09,04,5.40
2016,02,20,09,05,5.50
2016,02,20,09,06,5.50
2016,02,20,09,07,5.60
2016,02,20,09,08,5.60
2016,02,20,09,09,5.60
2016,02,20,09,10,5.70
2016,02,20,09,11,5.70
2016,02,20,09,12,5.70
2016,02,20,09,13,5.70
2016,02,20,09,14,5.80
2016,02,20,09,15,5.80
2016,02,20,09,16,5.90
2016,02,20,09,17,5.90
2016,02,20,09,18,6.00
2016,02,20,09,19,6.10
2016,02,20,09,20,6.10
2016,02,20,09,21,6.20
2016,02,20,09,22,6.20
2016,02,20,09,23,6.30
2016,02,20,09,24,6.30
2016,02,20,09,25,6.30
2016,02,20,09,26,6.40
2016,02,20,09,27,6.30
2016,02,20,09,28,6.30
2016,02,20,09,29,6.30
2016,02,20,09,30,6.30
2016,02,20,09,31,6.30
2016,02,20,09,32,6.30
2016,02,20,09,33,6.30
2016,02,20,09,34,6.30
2016,02,20,09,35,6.30
2016,02,20,09,36,6.30
2016,02,20,09,37,6.30
2016,02,20,09,38,6.30
2016,02,20,09,39,6.30
2016,02,20,09,40,6.30
2016,02,20,09,41,6.30
2016,02,20,09,42,6.30
2016,02,20,09,43,6.30
2016,02,20,09,44,6.30
2016,02,20,09,45,6.30
2016,02,20,09,46,6.30
2016,02,20,09,47,6.30
2016,02,20,09,48,6.30
2016,02,20,09,49,6.30
2016,02,20,09,50,6.30
2016,02,20,09,51,6.40
2016,02,20,09,52,6.30
2016,02,20,09,53,6.30
2016,02,20,09,54,6.30
2016,02,20,09,55,6.30
2016,02,20,09,56,6.30
2016,02,20,09,57,6.30
2016,02,20,09,58,6.30
2016,02,20,09,59,6.20
2016,02,20,10,00,6.20
2016,02,20,10,01,6.20
2016,02,20,10,02,6.20
2016,02,20,10,03,6.10
2016,02,20,10,04,6.10
2016,02,20,10,05,6.10
2016,02,20,10,06,6.10
2016,02,20,10,07,6.00
2016,02,20,10,08,6.00
2016,02,20,10,09,6.00
2016,02,20,10,10,6.00
2016,02,20,10,11,5.90
2016,02,20,10,12,5.90
2016,02,20,10,13,5.90
2016,02,20,10,14,5.90
2016,02,20,10,15,5.90
2016,02,20,10,16,5.90
2016,02,20,10,17,5.90
2016,02,20,10,18,5.90
2016,02,20,10,19,5.90
2016,02,20,10,20,5.90
2016,02,20,10,21,5.90
2016,02,20,10,22,6.00
2016,02,20,10,23,6.00
2016,02,20,10,24,6.00
2016,02,20,10,25,6.10
2016,02,20,10,26,6.10
2016,02,20,10,27,6.10
2016,02,20,10,28,6.20
2016,02,20,10,29,6.20
2016,02,20,10,30,6.20
2016,02,20,10,31,6.30
2016,02,20,10,32,6.30
2016,02,20,10,33,6.30
2016,02,20,10,34,6.30
2016,02,20,10,35,6.40
2016,02,20,10,36,6.40
2016,02,20,10,37,6.40
2016,02,20,10,38,6.50
2016,02,20,10,39,6.50
2016,02,20,10,40,6.60
2016,02,20,10,41,6.60
2016,02,20,10,42,6.60
2016,02,20,10,43,6.60
2016,02,20,10,44,6.70
2016,02,20,10,45,6.70
2016,02,20,10,46,6.70
2016,02,20,10,47,6.80
2016,02,20,10,48,6.80
2016,02,20,10,49,6.80
2016,02,20,10,50,6.80
2016,02,20,10,51,6.90
2016,02,20,10,52,6.90
2016,02,20,10,53,6.90
2016,02,20,10,54,6.90
2016,02,20,10,55,7.00
2016,02,20,10,56,7.00
2016,02,20,10,57,7.00
2016,02,20,10,58,7.00
2016,02,20,10,59,7.00
2016,02,20,11,00,7.00
2016,02,20,11,01,7.00
2016,02,20,11,02,6.90
2016,02,20,11,03,7.00
2016,02,20,11,04,6.90
2016,02,20,11,05,7.00
2016,02,20,11,06,7.00
2016,02,20,11,07,7.00
2016,02,20,11,08,7.00
2016,02,20,11,09,7.10
2016,02,20,11,10,7.10
2016,02,20,11,11,7.10
2016,02,20,11,12,7.20
2016,02,20,11,13,7.20
2016,02,20,11,14,7.20
2016,02,20,11,15,7.30
2016,02,20,11,16,7.30
2016,02,20,11,17,7.30
2016,02,20,11,18,7.30
2016,02,20,11,19,7.30
2016,02,20,11,20,7.30
2016,02,20,11,21,7.30
2016,02,20,11,22,7.30
2016,02,20,11,23,7.30
2016,02,20,11,24,7.40
2016,02,20,11,25,7.40
2016,02,20,11,26,7.50
2016,02,20,11,27,7.50
2016,02,20,11,28,7.60
2016,02,20,11,29,7.60
2016,02,20,11,30,7.70
2016,02,20,11,31,7.80
2016,02,20,11,32,7.80
2016,02,20,11,33,7.80
2016,02,20,11,34,7.80
2016,02,20,11,35,7.90
2016,02,20,11,36,7.90
2016,02,20,11,37,7.90
2016,02,20,11,38,7.90
2016,02,20,11,39,8.00
2016,02,20,11,40,8.00
2016,02,20,11,41,8.00
2016,02,20,11,42,8.10
2016,02,20,11,43,8.10
2016,02,20,11,44,8.10
2016,02,20,11,45,8.10
2016,02,20,11,46,8.10
2016,02,20,11,47,8.10
2016,02,20,11,48,8.20
2016,02,20,11,49,8.20
2016,02,20,11,50,8.20
2016,02,20,11,51,8.20
2016,02,20,11,52,8.30
2016,02,20,11,53,8.30
2016,02,20,11,54,8.40
2016,02,20,11,55,8.40
2016,02,20,11,56,8.40
2016,02,20,11,57,8.40
2016,02,20,11,58,8.40
2016,02,20,11,59,8.40
2016,02,20,12,00,8.40
2016,02,20,12,01,8.50
2016,02,20,12,02,8.60
2016,02,20,12,03,8.60
2016,02,20,12,04,8.70
2016,02,20,12,05,8.70
2016,02,20,12,06,8.70
2016,02,20,12,07,8.70
2016,02,20,12,08,8.70
2016,02,20,12,09,8.80
2016,02,20,12,10,8.80
2016,02,20,12,11,8.90
2016,02,20,12,12,8.90
2016,02,20,12,13,8.90
2016,02,20,12,14,8.90
2016,02,20,12,15,8.90
2016,02,20,12,16,8.90
2016,02,20,12,17,8.90
2016,02,20,12,18,8.90
2016,02,20,12,19,8.90
2016,02,20,12,20,8.90
2016,02,20,12,21,8.80
2016,02,20,12,22,8.80
2016,02,20,12,23,8.90
2016,02,20,12,24,8.90
2016,02,20,12,25,8.90
2016,02,20,12,26,8.90
2016,02,20,12,27,8.90
2016,02,20,12,28,8.90
2016,02,20,12,29,9.00
2016,02,20,12,30,9.00
2016,02,20,12,31,9.00
2016,02,20,12,32,8.90
2016,02,20,12,33,8.90
2016,02,20,12,34,8.90
2016,02,20,12,35,8.80
2016,02,20,12,36,8.80
2016,02,20,12,37,8.80
2016,02,20,12,38,8.80
2016,02,20,12,39,8.70
2016,02,20,12,40,8.70
2016,02,20,12,41,8.70
2016,02,20,12,42,8.70
2016,02,20,12,43,8.70
2016,02,20,12,44,8.70
2016,02,20,12,45,8.70
2016,02,20,12,46,8.70
2016,02,20,12,47,8.70
2016,02,20,12,48,8.70
2016,02,20,12,49,8.60
2016,02,20,12,50,8.60
2016,02,20,12,51,8.60
2016,02,20,12,52,8.70
2016,02,20,12,53,8.70
2016,02,20,12,54,8.80
2016,02,20,12,55,8.80
2016,02,20,12,56,8.90
2016,02,20,12,57,8.90
2016,02,20,12,58,9.00
2016,02,20,12,59,9.10
2016,02,20,13,00,9.10
2016,02,20,13,01,9.00
2016,02,20,13,02,9.00
2016,02,20,13,03,8.90
2016,02,20,13,04,8.80
2016,02,20,13,05,8.70
2016,02,20,13,06,8.70
2016,02,20,13,07,8.80
2016,02,20,13,08,8.80
2016,02,20,13,09,8.80
2016,02,20,13,10,8.80
2016,02,20,13,11,8.90
2016,02,20,13,12,9.00
2016,02,20,13,13,9.00
2016,02,20,13,14,9.10
2016,02,20,13,15,9.10
2016,02,20,13,16,9.20
2016,02,20,13,17,9.30
2016,02,20,13,18,9.40
2016,02,20,13,19,9.40
2016,02,20,13,20,9.50
2016,02,20,13,21,9.60
2016,02,20,13,22,9.60
2016,02,20,13,23,9.60
2016,02,20,13,24,9.50
2016,02,20,13,25,9.50
2016,02,20,13,26,9.40
2016,02,20,13,27,9.40
2016,02,20,13,28,9.40
2016,02,20,13,29,9.40
2016,02,20,13,30,9.40
2016,02,20,13,31,9.40
2016,02,20,13,32,9.40
2016,02,20,13,33,9.40
2016,02,20,13,34,9.50
2016,02,20,13,35,9.50
2016,02,20,13,36,9.50
2016,02,20,13,37,9.50
2016,02,20,13,38,9.60
2016,02,20,13,39,9.60
2016,02,20,13,40,9.60
2016,02,20,13,41,9.60
2016,02,20,13,42,9.60
2016,02,20,13,43,9.60
2016,02,20,13,44,9.60
2016,02,20,13,45,9.60
2016,02,20,13,46,9.70
2016,02,20,13,47,9.70
2016,02,20,13,48,9.80
2016,02,20,13,49,9.80
2016,02,20,13,50,9.80
2016,02,20,13,51,9.80
2016,02,20,13,52,9.80
2016,02,20,13,53,9.70
2016,02,20,13,54,9.70
2016,02,20,13,55,9.70
2016,02,20,13,56,9.70
2016,02,20,13,57,9.80
2016,02,20,13,58,9.80
2016,02,20,13,59,9.80
2016,02,20,14,00,9.80
2016,02,20,14,01,9.80
2016,02,20,14,02,9.80
2016,02,20,14,03,9.80
2016,02,20,14,04,9.80
2016,02,20,14,05,9.80
2016,02,20,14,06,9.80
2016,02,20,14,07,9.80
2016,02,20,14,08,9.80
2016,02,20,14,09,9.80
2016,02,20,14,10,9.80
2016,02,20,14,11,9.80
2016,02,20,14,12,9.80
2016,02,20,14,13,9.80
2016,02,20,14,14,9.80
2016,02,20,14,15,9.90
2016,02,20,14,16,9.90
2016,02,20,14,17,9.80
2016,02,20,14,18,9.80
2016,02,20,14,19,9.80
2016,02,20,14,20,9.80
2016,02,20,14,21,9.80
2016,02,20,14,22,9.90
2016,02,20,14,23,10.00
2016,02,20,14,24,10.00
2016,02,20,14,25,10.10
2016,02,20,14,26,10.20
2016,02,20,14,27,10.20
2016,02,20,14,28,10.10
2016,02,20,14,29,10.00
2016,02,20,14,30,9.90
2016,02,20,14,31,9.90
2016,02,20,14,32,9.90
2016,02,20,14,33,9.90
2016,02,20,14,34,9.90
2016,02,20,14,35,9.90
2016,02,20,14,36,9.90
2016,02,20,14,37,9.90
2016,02,20,14,38,9.90
2016,02,20,14,39,10.00
2016,02,20,14,40,10.00
2016,02,20,14,41,10.10
2016,02,20,14,42,10.10
2016,02,20,14,43,10.10
2016,02,20,14,44,10.10
2016,02,20,14,45,10.10
2016,02,20,14,46,10.10
2016,02,20,14,47,10.10
2016,02,20,14,48,10.10
2016,02,20,14,49,10.10
2016,02,20,14,50,10.20
2016,02,20,14,51,10.20
2016,02,20,14,52,10.30
2016,02,20,14,53,10.20
2016,02,20,14,54,10.20
2016,02,20,14,55,10.20
2016,02,20,14,56,10.20
2016,02,20,14,57,10.20
2016,02,20,14,58,10.20
2016,02,20,14,59,10.20
2016,02,20,15,00,10.20
2016,02,20,15,01,10.20
2016,02,20,15,02,10.20
2016,02,20,15,03,10.20
2016,02,20,15,04,10.20
2016,02,20,15,05,10.20
2016,02,20,15,06,10.20
2016,02,20,15,07,10.10
2016,02,20,15,08,10.10
2016,02,20,15,09,10.10
2016,02,20,15,10,10.00
2016,02,20,15,11,10.00
2016,02,20,15,12,10.00
2016,02,20,15,13,10.00
2016,02,20,15,14,9.90
2016,02,20,15,15,9.90
2016,02,20,15,16,9.80
2016,02,20,15,17,9.80
2016,02,20,15,18,9.80
2016,02,20,15,19,9.70
2016,02,20,15,20,9.80
2016,02,20,15,21,9.80
2016,02,20,15,22,9.80
2016,02,20,15,23,9.80
2016,02,20,15,24,9.80
2016,02,20,15,25,9.80
2016,02,20,15,26,9.80
2016,02,20,15,27,9.70
2016,02,20,15,28,9.70
2016,02,20,15,29,9.70
2016,02,20,15,30,9.70
2016,02,20,15,31,9.70
2016,02,20,15,32,9.60
2016,02,20,15,33,9.60
2016,02,20,15,34,9.50
2016,02,20,15,35,9.40
2016,02,20,15,36,9.40
2016,02,20,15,37,9.40
2016,02,20,15,38,9.40
2016,02,20,15,39,9.30
2016,02,20,15,40,9.30
2016,02,20,15,41,9.30
2016,02,20,15,42,9.30
2016,02,20,15,43,9.30
2016,02,20,15,44,9.30
2016,02,20,15,45,9.30
2016,02,20,15,46,9.30
2016,02,20,15,47,9.20
2016,02,20,15,48,9.20
2016,02,20,15,49,9.20
2016,02,20,15,50,9.20
2016,02,20,15,51,9.20
2016,02,20,15,52,9.10
2016,02,20,15,53,9.10
2016,02,20,15,54,9.10
2016,02,20,15,55,9.10
2016,02,20,15,56,9.10
2016,02,20,15,57,9.10
2016,02,20,15,58,9.00
2016,02,20,15,59,9.00
2016,02,20,16,00,9.00
2016,02,20,16,01,9.00
2016,02,20,16,02,9.00
2016,02,20,16,03,9.00
2016,02,20,16,04,8.90
2016,02,20,16,05,8.90
2016,02,20,16,06,8.90
2016,02,20,16,07,8.90
2016,02,20,16,08,8.90
2016,02,20,16,09,8.90
2016,02,20,16,10,8.90
2016,02,20,16,11,8.90
2016,02,20,16,12,8.90
2016,02,20,16,13,9.00
2016,02,20,16,14,9.00
2016,02,20,16,15,9.00
2016,02,20,16,16,9.00
2016,02,20,16,17,9.00
2016,02,20,16,18,9.00
2016,02,20,16,19,9.00
2016,02,20,16,20,9.00
2016,02,20,16,21,9.00
2016,02,20,16,22,9.00
2016,02,20,16,23,9.10
2016,02,20,16,24,9.00
2016,02,20,16,25,9.00
2016,02,20,16,26,9.00
2016,02,20,16,27,8.90
2016,02,20,16,28,8.90
2016,02,20,16,29,8.90
2016,02,20,16,30,8.90
2016,02,20,16,31,8.90
2016,02,20,16,32,8.90
2016,02,20,16,33,8.90
2016,02,20,16,34,8.90
2016,02,20,16,35,8.90
2016,02,20,16,36,8.90
2016,02,20,16,37,8.90
2016,02,20,16,38,8.80
2016,02,20,16,39,8.80
2016,02,20,16,40,8.80
2016,02,20,16,41,8.80
2016,02,20,16,42,8.80
2016,02,20,16,43,8.80
2016,02,20,16,44,8.80
2016,02,20,16,45,8.80
2016,02,20,16,46,8.70
2016,02,20,16,47,8.70
2016,02,20,16,48,8.70
2016,02,20,16,49,8.70
2016,02,20,16,50,8.70
2016,02,20,16,51,8.70
2016,02,20,16,52,8.70
2016,02,20,16,53,8.70
2016,02,20,16,54,8.70
2016,02,20,16,55,8.70
2016,02,20,16,56,8.70
2016,02,20,16,57,8.70
2016,02,20,16,58,8.70
2016,02,20,16,59,8.70
2016,02,20,17,00,8.70
2016,02,20,17,01,8.70
2016,02,20,17,02,8.60
2016,02,20,17,03,8.60
2016,02,20,17,04,8.60
2016,02,20,17,05,8.50
2016,02,20,17,06,8.50
2016,02,20,17,07,8.50
2016,02,20,17,08,8.50
2016,02,20,17,09,8.40
2016,02,20,17,10,8.40
2016,02,20,17,11,8.30
2016,02,20,17,12,8.30
2016,02,20,17,13,8.30
2016,02,20,17,14,8.30
2016,02,20,17,15,8.20
2016,02,20,17,16,8.20
2016,02,20,17,17,8.10
2016,02,20,17,18,8.10
2016,02,20,17,19,8.10
2016,02,20,17,20,8.10
2016,02,20,17,21,8.00
2016,02,20,17,22,8.00
2016,02,20,17,23,8.00
2016,02,20,17,24,8.00
2016,02,20,17,25,7.90
2016,02,20,17,26,7.90
2016,02,20,17,27,7.90
2016,02,20,17,28,7.90
2016,02,20,17,29,7.90
2016,02,20,17,30,7.90
2016,02,20,17,31,7.90
2016,02,20,17,32,7.90
2016,02,20,17,33,7.90
2016,02,20,17,34,7.90
2016,02,20,17,35,7.80
2016,02,20,17,36,7.80
2016,02,20,17,37,7.80
2016,02,20,17,38,7.80
2016,02,20,17,39,7.70
2016,02,20,17,40,7.70
2016,02,20,17,41,7.70
2016,02,20,17,42,7.70
2016,02,20,17,43,7.70
2016,02,20,17,44,7.60
2016,02,20,17,45,7.60
2016,02,20,17,46,7.60
2016,02,20,17,47,7.60
2016,02,20,17,48,7.60
2016,02,20,17,49,7.60
2016,02,20,17,50,7.50
2016,02,20,17,51,7.50
2016,02,20,17,52,7.40
2016,02,20,17,53,7.40
2016,02,20,17,54,7.40
2016,02,20,17,55,7.40
2016,02,20,17,56,7.40
2016,02,20,17,57,7.40
2016,02,20,17,58,7.30
2016,02,20,17,59,7.30
2016,02,20,18,00,7.30
2016,02,20,18,01,7.20
2016,02,20,18,02,7.20
2016,02,20,18,03,7.20
2016,02,20,18,04,7.20